Tracking 28790 objects as of 19-Apr-2024
HD Live streaming from Space Station
objects crossing your sky now

OPS 1294 (DMSP 5D-2 F7)

Track OPS 1294 (DMSP 5D-2 F7) now!
10-day predictions
OPS 1294 (DMSP 5D-2 F7) is classified as:


NORAD ID: 14506
Int'l Code: 1983-113A
Perigee: 794.3 km
Apogee: 811.1 km
Inclination: 98.3 °
Period: 100.8 minutes
Semi major axis: 7173 km
RCS: 4.7791 m2 (large)
Launch date: November 18, 1983
Source: United States (US)
Launch site: AIR FORCE WESTERN TEST RANGE (AFWTR)
Your satellite tracking list
Your tracking list is empty




NASA's NSSDC Master Catalog

Two Line Element Set (TLE):
1 14506U 83113A   24110.46957344  .00000941  00000-0  38925-3 0  9996
2 14506  98.3247 275.5188 0011725  46.1147  15.7314 14.28849361103108
Source of the keplerian elements: AFSPC